This is the latest recevied weather packets stored in our database for station/object KJ4RDP-13. If no packets are shown the sender has not sent any weather packets the latest 10 day(s).
| Time | Temp. | Humidity | Pressure | Rain* | Wind** | Luminosity | Snow |
|---|---|---|---|---|---|---|---|
| 1778021617 | 21.11° C | 51% | 1013.8 hPa | 0 mm | - | 147 W/m² | - |
| 1778021311 | 20.56° C | 52% | 1013.8 hPa | 0 mm | - | 164 W/m² | - |
| 1778021010 | 20.56° C | 52% | 1013.8 hPa | 0 mm | - | 195 W/m² | - |
| 1778020706 | 20.56° C | 53% | 1013.8 hPa | 0 mm | - | 91 W/m² | - |
| 1778020403 | 20.56° C | 52% | 1013.8 hPa | 0 mm | - | 52 W/m² | - |
| 1778020099 | 21.11° C | 54% | 1013.8 hPa | 0 mm | - | 85 W/m² | - |
| 1778019795 | 21.67° C | 51% | 1013.8 hPa | 0 mm | - | 262 W/m² | - |
| 1778019493 | 21.67° C | 50% | 1013.8 hPa | 0 mm | - | 280 W/m² | - |
| 1778019189 | 21.67° C | 49% | 1014.2 hPa | 0 mm | - | 308 W/m² | - |
| 1778018886 | 21.11° C | 52% | 1013.8 hPa | 0 mm | - | 302 W/m² | - |
| 1778018583 | 21.11° C | 51% | 1014.2 hPa | 0 mm | - | 315 W/m² | - |
| 1778018282 | 21.67° C | 51% | 1013.8 hPa | 0 mm | - | 102 W/m² | - |
| 1778017979 | 21.67° C | 52% | 1013.8 hPa | 0 mm | - | 103 W/m² | - |
| 1778017676 | 21.11° C | 50% | 1013.8 hPa | 0 mm | - | 343 W/m² | - |
| 1778017374 | 21.67° C | 53% | 1013.8 hPa | 0 mm | - | 302 W/m² | - |
| 1778017071 | 21.67° C | 53% | 1013.8 hPa | 0 mm | - | 347 W/m² | - |
| 1778016769 | 21.67° C | 49% | 1013.8 hPa | 0 mm | - | 335 W/m² | - |
| 1778016464 | 21.11° C | 49% | 1013.8 hPa | 0 mm | - | 322 W/m² | - |
| 1778016162 | 21.67° C | 48% | 1014.2 hPa | 0 mm | - | 342 W/m² | - |
| 1778015858 | 21.67° C | 48% | 1013.8 hPa | 0 mm | - | 423 W/m² | - |
| 1778015556 | 21.11° C | 47% | 1014.2 hPa | 0 mm | - | 455 W/m² | - |
| 1778015252 | 21.11° C | 49% | 1014.2 hPa | 0 mm | - | 396 W/m² | - |
| 1778014949 | 21.67° C | 48% | 1014.2 hPa | 0 mm | - | 321 W/m² | - |
| 1778014646 | 21.67° C | 46% | 1014.2 hPa | 0 mm | - | 403 W/m² | - |
| 1778014345 | 21.67° C | 48% | 1014.2 hPa | 0 mm | - | 462 W/m² | - |
* Rain latest hour (hover to see other rain measurements)
** Current wind speed in m/s (hover to see current wind gust speed)